569  
ASGM40 PGUM 240112  
RWRGUM  
WEATHER ROUNDUP FOR THE MARIANAS  
NATIONAL WEATHER SERVICE TIYAN GU  
1100 AM CHST FRI NOV 24 2017  
 
GUZ001>004-240200-  
MARIANA ISLANDS-  
 
CITY SKY/WX TMP DP RH WIND PRES REMARKS
 
GUAM AIRPORT PTSUNNY 86 75 70 E15 29.89F HX 95  
ANDERSEN AFB MOSUNNY 82 75 78 E16 29.90S  
ROTA AIRPORT MOSUNNY 84 75 74 E13 29.90F HX 92  
TINIAN AP MOSUNNY 82 75 78 NE20 29.89F  
SAIPAN AP MOSUNNY 88 77 70 E18G25 29.90F HX 100  
 

 
 
 
 
CLICK HERE TO GO TO PREVIOUS BULLETINS.

The Nexlab GU Page Main Text Page